| time (UTC) | temp C | wind direction | speed KPH | gust KPH | rain 1hr cm | rain 24hr cm | rain mn cm | humidity % | barometer mb |
| 20260510185516 | 14 | 270 | 16.1 | 37.0 | 0.00 | 0.00 | 0.00 | 39 | 1019.0 |
| 20260510184555 | 15 | 270 | 17.7 | 37.0 | 0.00 | 0.00 | 0.00 | 35 | 1019.2 |
| 20260510183516 | 15 | 270 | 12.9 | 24.1 | 0.00 | 0.00 | 0.00 | 35 | 1019.2 |
| 20260510182515 | 15 | 293 | 12.9 | 25.7 | 0.00 | 0.00 | 0.00 | 39 | 1019.5 |
| 20260510181515 | 15 | 293 | 11.3 | 19.3 | 0.00 | 0.00 | 0.00 | 38 | 1019.4 |
| 20260510180515 | 14 | 293 | 14.5 | 22.5 | 0.00 | 0.00 | 0.00 | 38 | 1019.5 |
| 20260510175515 | 14 | 315 | 11.3 | 20.9 | 0.00 | 0.00 | 0.00 | 40 | 1019.5 |
| 20260510174535 | 14 | 293 | 9.7 | 19.3 | 0.00 | 0.00 | 0.00 | 41 | 1019.9 |
| 20260510173515 | 13 | 248 | 14.5 | 25.7 | 0.00 | 0.00 | 0.00 | 38 | 1019.7 |
| 20260510172515 | 13 | 293 | 12.9 | 30.6 | 0.00 | 0.00 | 0.00 | 40 | 1019.6 |
| 20260510171517 | 13 | 293 | 11.3 | 27.4 | 0.00 | 0.00 | 0.00 | 37 | 1019.6 |
| 20260510170517 | 13 | 315 | 17.7 | 32.2 | 0.00 | 0.00 | 0.00 | 41 | 1019.4 |
| 20260510165517 | 13 | 293 | 16.1 | 35.4 | 0.00 | 0.00 | 0.00 | 37 | 1019.7 |
| 20260510164517 | 13 | 315 | 17.7 | 35.4 | 0.00 | 0.00 | 0.00 | 37 | 1019.7 |
| 20260510163517 | 13 | 315 | 17.7 | 37.0 | 0.00 | 0.00 | 0.00 | 37 | 1019.7 |
| 20260510162517 | 13 | 293 | 16.1 | 30.6 | 0.00 | 0.00 | 0.00 | 38 | 1019.4 |
| 20260510161517 | 13 | 315 | 9.7 | 22.5 | 0.00 | 0.00 | 0.00 | 39 | 1019.5 |
| 20260510160517 | 13 | 315 | 12.9 | 27.4 | 0.00 | 0.00 | 0.00 | 41 | 1019.6 |
| 20260510155557 | 13 | 270 | 16.1 | 32.2 | 0.00 | 0.00 | 0.00 | 40 | 1019.5 |
| 20260510154517 | 12 | 270 | 16.1 | 30.6 | 0.00 | 0.00 | 0.00 | 41 | 1019.5 |
| 20260510153517 | 13 | 270 | 11.3 | 25.7 | 0.00 | 0.00 | 0.00 | 38 | 1019.5 |
| 20260510152517 | 12 | 315 | 11.3 | 22.5 | 0.00 | 0.00 | 0.00 | 39 | 1019.5 |
| 20260510151517 | 12 | 270 | 11.3 | 25.7 | 0.00 | 0.00 | 0.00 | 39 | 1019.3 |
| 20260510150517 | 12 | 315 | 14.5 | 22.5 | 0.00 | 0.00 | 0.00 | 40 | 1019.3 |
| 20260510145517 | 12 | 293 | 8.0 | 17.7 | 0.00 | 0.00 | 0.00 | 40 | 1019.2 |
| 20260510144517 | 12 | 270 | 9.7 | 20.9 | 0.00 | 0.00 | 0.00 | 39 | 1019.1 |
| 20260510143517 | 11 | 315 | 6.4 | 16.1 | 0.00 | 0.00 | 0.00 | 40 | 1018.9 |
| 20260510142537 | 11 | 315 | 8.0 | 16.1 | 0.00 | 0.00 | 0.00 | 43 | 1019.1 |
| 20260510141537 | 11 | 293 | 8.0 | 14.5 | 0.00 | 0.00 | 0.00 | 46 | 1019.2 |
| 20260510140517 | 11 | 270 | 6.4 | 12.9 | 0.00 | 0.00 | 0.00 | 46 | 1019.1 |
| 20260510135517 | 10 | 270 | 3.2 | 11.3 | 0.00 | 0.00 | 0.00 | 50 | 1019.0 |
| 20260510134517 | 10 | 270 | 8.0 | 12.9 | 0.00 | 0.00 | 0.00 | 50 | 1018.9 |
| 20260510133557 | 9 | 270 | 8.0 | 14.5 | 0.00 | 0.00 | 0.00 | 52 | 1019.0 |
| 20260510132517 | 8 | 270 | 6.4 | 11.3 | 0.00 | 0.00 | 0.00 | 55 | 1018.7 |
| 20260510131517 | 8 | 270 | 6.4 | 16.1 | 0.00 | 0.00 | 0.00 | 56 | 1018.6 |
| 20260510130517 | 8 | 270 | 4.8 | 9.7 | 0.00 | 0.00 | 0.00 | 59 | 1018.7 |
| 20260510125517 | 7 | 270 | 4.8 | 11.3 | 0.00 | 0.00 | 0.00 | 61 | 1018.7 |
| 20260510124517 | 6 | 270 | 4.8 | 9.7 | 0.00 | 0.00 | 0.00 | 61 | 1018.6 |
| 20260510123537 | 6 | 270 | 3.2 | 6.4 | 0.00 | 0.00 | 0.00 | 64 | 1018.4 |
| 20260510122517 | 5 | 270 | 4.8 | 9.7 | 0.00 | 0.00 | 0.00 | 65 | 1018.2 |
| 20260510121537 | 3 | 270 | 3.2 | 6.4 | 0.00 | 0.00 | 0.00 | 71 | 1018.1 |
| 20260510120537 | 3 | 270 | 4.8 | 6.4 | 0.00 | 0.00 | 0.00 | 73 | 1018.0 |
| 20260510115517 | 2 | 270 | 3.2 | 4.8 | 0.00 | 0.00 | 0.00 | 74 | 1017.7 |
| 20260510114517 | 3 | 270 | 3.2 | 4.8 | 0.00 | 0.00 | 0.00 | 72 | 1017.7 |
| 20260510113517 | 3 | 270 | 3.2 | 4.8 | 0.00 | 0.00 | 0.00 | 66 | 1017.6 |
| 20260510112517 | 3 | 0.0 | 3.2 | 0.00 | 0.00 | 0.00 | 66 | 1017.4 | |
| 20260510111557 | 2 | 270 | 1.6 | 4.8 | 0.00 | 0.00 | 0.00 | 68 | 1017.3 |
| 20260510110517 | 2 | 270 | 3.2 | 4.8 | 0.00 | 0.00 | 0.00 | 71 | 1017.4 |
| 20260510105516 | 2 | 270 | 3.2 | 6.4 | 0.00 | 0.00 | 0.00 | 70 | 1017.1 |
| 20260510104516 | 1 | 270 | 3.2 | 6.4 | 0.00 | 0.00 | 0.00 | 77 | 1017.2 |
| 20260510103517 | 2 | 270 | 3.2 | 4.8 | 0.00 | 0.00 | 0.00 | 73 | 1017.2 |
| 20260510102517 | 2 | 270 | 3.2 | 4.8 | 0.00 | 0.00 | 0.00 | 72 | 1017.0 |
| 20260510101517 | 3 | 270 | 3.2 | 6.4 | 0.00 | 0.00 | 0.00 | 63 | 1017.1 |
| 20260510100516 | 4 | 293 | 3.2 | 4.8 | 0.00 | 0.00 | 0.00 | 60 | 1017.0 |
| 20260510095517 | 4 | 293 | 3.2 | 4.8 | 0.00 | 0.00 | 0.00 | 60 | 1016.9 |
| 20260510094516 | 4 | 293 | 3.2 | 4.8 | 0.00 | 0.00 | 0.00 | 59 | 1016.5 |
| 20260510093516 | 4 | 293 | 3.2 | 4.8 | 0.00 | 0.00 | 0.00 | 60 | 1016.4 |
| 20260510092516 | 4 | 293 | 4.8 | 6.4 | 0.00 | 0.00 | 0.00 | 62 | 1016.0 |
| 20260510091516 | 4 | 293 | 4.8 | 4.8 | 0.00 | 0.00 | 0.00 | 62 | 1016.1 |
| 20260510090517 | 4 | 270 | 3.2 | 4.8 | 0.00 | 0.00 | 0.00 | 60 | 1016.0 |
| 20260510085516 | 4 | 270 | 3.2 | 4.8 | 0.00 | 0.00 | 0.00 | 60 | 1015.8 |
| 20260510084537 | 4 | 293 | 3.2 | 6.4 | 0.00 | 0.00 | 0.00 | 60 | 1015.7 |
| 20260510083516 | 4 | 293 | 3.2 | 4.8 | 0.00 | 0.00 | 0.00 | 61 | 1015.6 |
| 20260510082516 | 5 | 293 | 4.8 | 11.3 | 0.00 | 0.00 | 0.00 | 60 | 1015.5 |
| 20260510081516 | 5 | 293 | 4.8 | 8.0 | 0.00 | 0.00 | 0.00 | 58 | 1015.3 |
| 20260510080556 | 4 | 293 | 4.8 | 8.0 | 0.00 | 0.00 | 0.00 | 59 | 1015.2 |
| 20260510075517 | 4 | 293 | 4.8 | 4.8 | 0.00 | 0.00 | 0.00 | 60 | 1015.0 |
| 20260510074516 | 5 | 293 | 4.8 | 6.4 | 0.00 | 0.00 | 0.00 | 59 | 1015.0 |
| 20260510073516 | 5 | 293 | 4.8 | 8.0 | 0.00 | 0.00 | 0.00 | 55 | 1014.9 |
| 20260510072516 | 5 | 293 | 4.8 | 8.0 | 0.00 | 0.00 | 0.00 | 54 | 1014.7 |
| 20260510071516 | 5 | 293 | 6.4 | 8.0 | 0.00 | 0.00 | 0.00 | 55 | 1014.7 |
| 20260510070558 | 5 | 293 | 4.8 | 8.0 | 0.00 | 0.00 | 0.00 | 57 | 1014.7 |
| 20260510065516 | 6 | 293 | 3.2 | 4.8 | 0.00 | 0.00 | 0.00 | 53 | 1014.6 |
| 20260510064516 | 6 | 293 | 3.2 | 6.4 | 0.00 | 0.00 | 0.00 | 54 | 1014.6 |
| 20260510063516 | 5 | 293 | 3.2 | 4.8 | 0.00 | 0.00 | 0.00 | 55 | 1014.5 |
| 20260510062516 | 5 | 293 | 4.8 | 4.8 | 0.00 | 0.00 | 0.00 | 56 | 1014.3 |
| 20260510061516 | 5 | 293 | 3.2 | 4.8 | 0.00 | 0.00 | 0.00 | 56 | 1014.3 |
| 20260510060536 | 6 | 270 | 4.8 | 6.4 | 0.00 | 0.00 | 0.00 | 57 | 1014.4 |
| 20260510055516 | 6 | 270 | 4.8 | 6.4 | 0.00 | 0.00 | 0.00 | 55 | 1014.4 |
| 20260510054516 | 7 | 293 | 3.2 | 4.8 | 0.00 | 0.00 | 0.00 | 49 | 1014.1 |
| 20260510053536 | 8 | 293 | 4.8 | 8.0 | 0.00 | 0.00 | 0.00 | 45 | 1013.9 |
| 20260510052516 | 8 | 315 | 4.8 | 11.3 | 0.00 | 0.00 | 0.00 | 45 | 1013.8 |
| 20260510051516 | 8 | 315 | 4.8 | 8.0 | 0.00 | 0.00 | 0.00 | 45 | 1013.6 |
| 20260510050516 | 8 | 315 | 4.8 | 12.9 | 0.00 | 0.00 | 0.00 | 45 | 1013.8 |
| 20260510045517 | 8 | 315 | 4.8 | 8.0 | 0.00 | 0.00 | 0.00 | 45 | 1013.7 |
| 20260510044517 | 8 | 315 | 4.8 | 8.0 | 0.00 | 0.00 | 0.00 | 44 | 1013.6 |
| 20260510043517 | 8 | 315 | 4.8 | 9.7 | 0.00 | 0.00 | 0.00 | 44 | 1013.6 |
| 20260510042517 | 9 | 315 | 4.8 | 12.9 | 0.00 | 0.00 | 0.00 | 43 | 1013.6 |
| 20260510041537 | 9 | 315 | 6.4 | 12.9 | 0.00 | 0.00 | 0.00 | 43 | 1013.5 |
| 20260510040517 | 9 | 315 | 4.8 | 12.9 | 0.00 | 0.00 | 0.00 | 43 | 1013.3 |
| 20260510035517 | 9 | 315 | 6.4 | 12.9 | 0.00 | 0.00 | 0.00 | 42 | 1013.2 |
| 20260510034517 | 9 | 293 | 4.8 | 8.0 | 0.00 | 0.00 | 0.00 | 41 | 1013.2 |
| 20260510033517 | 10 | 293 | 6.4 | 14.5 | 0.00 | 0.00 | 0.00 | 41 | 1013.1 |
| 20260510032518 | 10 | 315 | 4.8 | 12.9 | 0.00 | 0.00 | 0.00 | 40 | 1012.8 |
| 20260510031517 | 10 | 315 | 4.8 | 11.3 | 0.00 | 0.00 | 0.00 | 39 | 1012.7 |
| 20260510030517 | 10 | 315 | 6.4 | 14.5 | 0.00 | 0.00 | 0.00 | 39 | 1012.5 |
| 20260510025517 | 10 | 315 | 6.4 | 14.5 | 0.00 | 0.00 | 0.00 | 38 | 1012.5 |
| 20260510024517 | 10 | 315 | 4.8 | 9.7 | 0.00 | 0.00 | 0.00 | 38 | 1012.1 |
| 20260510023517 | 11 | 293 | 6.4 | 16.1 | 0.00 | 0.00 | 0.00 | 37 | 1011.9 |
| 20260510022517 | 11 | 315 | 6.4 | 14.5 | 0.00 | 0.00 | 0.00 | 36 | 1011.8 |
| 20260510021557 | 11 | 293 | 4.8 | 12.9 | 0.00 | 0.00 | 0.00 | 37 | 1011.4 |
| 20260510020517 | 11 | 315 | 3.2 | 6.4 | 0.00 | 0.00 | 0.00 | 37 | 1011.4 |
| 20260510015517 | 11 | 315 | 6.4 | 14.5 | 0.00 | 0.00 | 0.00 | 37 | 1011.1 |
| 20260510014517 | 11 | 315 | 6.4 | 12.9 | 0.00 | 0.00 | 0.00 | 36 | 1010.9 |
| 20260510013517 | 12 | 315 | 9.7 | 19.3 | 0.00 | 0.00 | 0.00 | 34 | 1010.7 |
| 20260510012557 | 12 | 315 | 8.0 | 16.1 | 0.00 | 0.00 | 0.00 | 34 | 1010.4 |
| 20260510011516 | 12 | 315 | 8.0 | 17.7 | 0.00 | 0.00 | 0.00 | 34 | 1010.3 |
| 20260510010517 | 13 | 315 | 6.4 | 12.9 | 0.00 | 0.00 | 0.00 | 34 | 1010.0 |
| 20260510005517 | 13 | 315 | 6.4 | 14.5 | 0.00 | 0.00 | 0.00 | 32 | 1009.7 |
| 20260510004517 | 13 | 315 | 4.8 | 16.1 | 0.00 | 0.00 | 0.00 | 34 | 1009.6 |
| 20260510003536 | 13 | 315 | 8.0 | 14.5 | 0.00 | 0.00 | 0.00 | 32 | 1009.3 |
| 20260510002517 | 14 | 315 | 11.3 | 19.3 | 0.00 | 0.00 | 0.00 | 31 | 1009.2 |
| 20260510001516 | 15 | 338 | 11.3 | 22.5 | 0.00 | 0.00 | 0.00 | 32 | 1009.2 |
| 20260510000518 | 15 | 315 | 11.3 | 19.3 | 0.00 | 0.00 | 0.00 | 31 | 1008.9 |
| 20260509235517 | 15 | 293 | 9.7 | 20.9 | 0.00 | 0.00 | 0.00 | 31 | 1008.7 |
| 20260509234516 | 15 | 315 | 14.5 | 24.1 | 0.00 | 0.00 | 0.00 | 31 | 1008.7 |
| 20260509233516 | 15 | 293 | 9.7 | 20.9 | 0.00 | 0.00 | 0.00 | 32 | 1008.7 |
| 20260509232516 | 15 | 315 | 14.5 | 24.1 | 0.00 | 0.00 | 0.00 | 33 | 1008.6 |
| 20260509231517 | 16 | 338 | 14.5 | 25.7 | 0.00 | 0.00 | 0.00 | 33 | 1008.5 |
| 20260509230517 | 16 | 338 | 12.9 | 20.9 | 0.00 | 0.00 | 0.00 | 30 | 1008.2 |
| 20260509225516 | 16 | 338 | 16.1 | 29.0 | 0.00 | 0.00 | 0.00 | 33 | 1008.0 |
| 20260509224516 | 16 | 293 | 16.1 | 29.0 | 0.00 | 0.00 | 0.00 | 35 | 1007.7 |
| 20260509223516 | 16 | 315 | 14.5 | 29.0 | 0.00 | 0.00 | 0.00 | 35 | 1007.9 |
| 20260509222536 | 16 | 338 | 14.5 | 25.7 | 0.00 | 0.00 | 0.00 | 37 | 1007.7 |
| 20260509221516 | 16 | 315 | 14.5 | 25.7 | 0.00 | 0.00 | 0.00 | 38 | 1007.7 |
| 20260509220516 | 16 | 270 | 14.5 | 25.7 | 0.00 | 0.00 | 0.00 | 36 | 1007.4 |
| 20260509215516 | 16 | 315 | 12.9 | 25.7 | 0.00 | 0.00 | 0.00 | 37 | 1007.3 |
| 20260509214516 | 16 | 315 | 16.1 | 25.7 | 0.00 | 0.00 | 0.00 | 37 | 1007.2 |
| 20260509213516 | 16 | 315 | 16.1 | 29.0 | 0.00 | 0.00 | 0.00 | 39 | 1007.2 |
| 20260509212516 | 16 | 338 | 16.1 | 32.2 | 0.00 | 0.00 | 0.00 | 38 | 1007.2 |
| 20260509211516 | 16 | 315 | 17.7 | 30.6 | 0.00 | 0.00 | 0.00 | 37 | 1007.0 |
| 20260509210516 | 16 | 315 | 19.3 | 25.7 | 0.00 | 0.00 | 0.00 | 37 | 1007.0 |
| 20260509205516 | 16 | 293 | 14.5 | 30.6 | 0.00 | 0.00 | 0.00 | 37 | 1006.9 |
| 20260509204516 | 16 | 315 | 12.9 | 27.4 | 0.00 | 0.00 | 0.00 | 43 | 1006.9 |
| 20260509203516 | 16 | 315 | 14.5 | 27.4 | 0.00 | 0.00 | 0.00 | 40 | 1006.8 |
| 20260509202538 | 16 | 338 | 14.5 | 32.2 | 0.00 | 0.00 | 0.00 | 39 | 1007.0 |
| 20260509201536 | 16 | 315 | 12.9 | 27.4 | 0.00 | 0.00 | 0.00 | 41 | 1006.7 |
| 20260509200518 | 15 | 315 | 17.7 | 30.6 | 0.00 | 0.00 | 0.00 | 43 | 1006.7 |
| 20260509195538 | 15 | 315 | 16.1 | 25.7 | 0.00 | 0.00 | 0.00 | 44 | 1006.5 |
| 20260509194516 | 16 | 270 | 17.7 | 33.8 | 0.00 | 0.00 | 0.00 | 43 | 1006.5 |
| 20260509193516 | 16 | 315 | 19.3 | 41.8 | 0.00 | 0.00 | 0.00 | 43 | 1006.4 |
| 20260509192518 | 16 | 315 | 17.7 | 32.2 | 0.00 | 0.00 | 0.00 | 41 | 1006.5 |
| 20260509191536 | 16 | 315 | 17.7 | 32.2 | 0.00 | 0.00 | 0.00 | 45 | 1006.3 |
| 20260509190518 | 16 | 338 | 14.5 | 38.6 | 0.00 | 0.00 | 0.00 | 46 | 1006.0 |